When you browse on this site, cookies collect data to enhance your experience and personalize the content and advertising you see.
Visit our Privacy Policy to learn more. By continuing to use the site, you agree to this use of cookies and data.
  • In France
  • List of Countries
  • For 7 days
  • Water Temperature
  • Satellite Maps
  • Weather Map
  • Weather Widgets
  • user-avatar
    Login

    Hourly Weather Dinagepoor

    Today, 19 January, Saturday

    Time Temperature Precipitation Wind Pressure Humidity
    00:00 +19°C° 0 mm 2 mps 759 mmHg 58%
    01:00 +18°C° 0 mm 2 mps 759 mmHg 60%
    02:00 +18°C° 0 mm 2 mps 759 mmHg 62%
    03:00 +17°C° 0 mm 2 mps 759 mmHg 64%
    04:00 +17°C° 0 mm 2 mps 759 mmHg 65%
    05:00 +17°C° 0 mm 2 mps 759 mmHg 67%
    06:00 +16°C° 0 mm 2 mps 759 mmHg 71%
    07:00 +17°C° 0 mm 2 mps 759 mmHg 67%
    08:00 +18°C° 0 mm 2 mps 760 mmHg 63%
    09:00 +19°C° 0 mm 2 mps 760 mmHg 59%
    10:00 +21°C° 0 mm 2 mps 760 mmHg 53%
    11:00 +24°C° 0 mm 2 mps 760 mmHg 47%
    12:00 +25°C° 0 mm 1 mps 760 mmHg 41%
    13:00 +26°C° 0 mm 1 mps 759 mmHg 39%
    14:00 +26°C° 0 mm 1 mps 758 mmHg 37%
    15:00 +25°C° 0 mm 0 mps 758 mmHg 35%
    16:00 +24°C° 0 mm 0 mps 758 mmHg 37%
    17:00 +25°C° 0 mm 1 mps 758 mmHg 39%
    18:00 +24°C° 0 mm 1 mps 758 mmHg 41%
    19:00 +23°C° 0 mm 1 mps 758 mmHg 42%
    20:00 +23°C° 0 mm 1 mps 758 mmHg 44%
    21:00 +22°C° 0 mm 1 mps 759 mmHg 45%
    22:00 +21°C° 0 mm 2 mps 759 mmHg 48%
    23:00 +20°C° 0 mm 2 mps 759 mmHg 50%

    Tomorrow, 20 January, Sunday

    Time Temperature Precipitation Wind Pressure Humidity
    00:00 +20°C° 0 mm 2 mps 759 mmHg 53%
    01:00 +19°C° 0 mm 2 mps 759 mmHg 55%
    02:00 +19°C° 0 mm 2 mps 758 mmHg 58%
    03:00 +18°C° 0 mm 2 mps 758 mmHg 61%
    04:00 +18°C° 0 mm 2 mps 758 mmHg 61%
    05:00 +18°C° 0 mm 1 mps 758 mmHg 62%
    06:00 +18°C° 0 mm 1 mps 758 mmHg 62%
    07:00 +19°C° 0 mm 1 mps 759 mmHg 58%
    08:00 +20°C° 0 mm 1 mps 760 mmHg 53%
    09:00 +20°C° 0 mm 2 mps 760 mmHg 49%
    10:00 +23°C° 0 mm 2 mps 760 mmHg 44%
    11:00 +25°C° 0 mm 2 mps 760 mmHg 38%
    12:00 +26°C° 0 mm 2 mps 760 mmHg 33%
    13:00 +27°C° 0 mm 1 mps 759 mmHg 32%
    14:00 +27°C° 0 mm 1 mps 758 mmHg 31%
    15:00 +28°C° 0 mm 1 mps 758 mmHg 30%
    16:00 +27°C° 0 mm 1 mps 758 mmHg 32%
    17:00 +26°C° 0 mm 1 mps 758 mmHg 35%
    18:00 +25°C° 0 mm 1 mps 758 mmHg 37%
    19:00 +24°C° 0 mm 1 mps 758 mmHg 39%
    20:00 +23°C° 0 mm 1 mps 759 mmHg 40%
    21:00 +23°C° 0 mm 1 mps 759 mmHg 42%
    22:00 +22°C° 0 mm 1 mps 759 mmHg 44%
    23:00 +22°C° 0 mm 1 mps 759 mmHg 46%

    Day after tomorrow, 21 January, Monday

    Time Temperature Precipitation Wind Pressure Humidity
    00:00 +20°C° 0 mm 2 mps 759 mmHg 48%
    01:00 +20°C° 0 mm 2 mps 759 mmHg 50%
    02:00 +19°C° 0 mm 2 mps 759 mmHg 52%
    03:00 +18°C° 0 mm 2 mps 758 mmHg 53%
    04:00 +19°C° 0 mm 1 mps 759 mmHg 54%
    05:00 +19°C° 0 mm 1 mps 759 mmHg 54%
    06:00 +18°C° 0 mm 1 mps 759 mmHg 54%
    07:00 +19°C° 0 mm 1 mps 760 mmHg 50%
    08:00 +20°C° 0 mm 1 mps 760 mmHg 46%
    09:00 +22°C° 0 mm 1 mps 761 mmHg 42%
    10:00 +23°C° 0 mm 1 mps 761 mmHg 38%
    11:00 +25°C° 0 mm 1 mps 761 mmHg 34%
    12:00 +27°C° 0 mm 1 mps 761 mmHg 30%
    13:00 +27°C° 0 mm 1 mps 760 mmHg 29%
    14:00 +28°C° 0 mm 1 mps 759 mmHg 29%
    15:00 +28°C° 0 mm 1 mps 758 mmHg 28%
    16:00 +27°C° 0 mm 1 mps 758 mmHg 30%
    17:00 +26°C° 0 mm 1 mps 758 mmHg 32%
    18:00 +25°C° 0 mm 1 mps 758 mmHg 34%
    19:00 +24°C° 0 mm 1 mps 758 mmHg 35%
    20:00 +23°C° 0 mm 1 mps 758 mmHg 36%
    21:00 +23°C° 0 mm 1 mps 759 mmHg 38%
    22:00 +22°C° 0 mm 1 mps 759 mmHg 39%
    23:00 +21°C° 0 mm 2 mps 759 mmHg 41%

    22 January, Tuesday

    Time Temperature Precipitation Wind Pressure Humidity
    00:00 +20°C° 0 mm 2 mps 759 mmHg 43%
    01:00 +19°C° 0 mm 2 mps 758 mmHg 45%
    02:00 +19°C° 0 mm 2 mps 758 mmHg 47%
    03:00 +18°C° 0 mm 2 mps 758 mmHg 49%
    04:00 +18°C° 0 mm 2 mps 758 mmHg 48%
    05:00 +17°C° 0 mm 2 mps 758 mmHg 46%
    06:00 +17°C° 0 mm 2 mps 758 mmHg 45%
    07:00 +18°C° 0 mm 2 mps 759 mmHg 42%
    08:00 +19°C° 0 mm 2 mps 759 mmHg 39%
    09:00 +20°C° 0 mm 2 mps 760 mmHg 36%
    10:00 +23°C° 0 mm 2 mps 760 mmHg 34%
    11:00 +25°C° 0 mm 2 mps 760 mmHg 32%
    12:00 +27°C° 0 mm 2 mps 759 mmHg 30%
    13:00 +27°C° 0 mm 2 mps 759 mmHg 29%
    14:00 +28°C° 0 mm 2 mps 758 mmHg 27%
    15:00 +28°C° 0 mm 1 mps 757 mmHg 26%
    16:00 +27°C° 0 mm 1 mps 757 mmHg 28%
    17:00 +26°C° 0 mm 1 mps 757 mmHg 30%
    18:00 +25°C° 0 mm 2 mps 757 mmHg 32%
    19:00 +24°C° 0 mm 1 mps 758 mmHg 33%
    20:00 +24°C° 0 mm 1 mps 758 mmHg 35%
    21:00 +23°C° 0 mm 1 mps 759 mmHg 36%
    22:00 +22°C° 0 mm 1 mps 759 mmHg 37%
    23:00 +22°C° 0 mm 1 mps 759 mmHg 37%

    23 January, Wednesday

    Time Temperature Precipitation Wind Pressure Humidity
    00:00 +22°C° 0 mm 1 mps 759 mmHg 38%
    01:00 +20°C° 0 mm 2 mps 758 mmHg 41%
    02:00 +20°C° 0 mm 2 mps 758 mmHg 44%
    03:00 +19°C° 0 mm 2 mps 758 mmHg 47%
    04:00 +19°C° 0 mm 2 mps 758 mmHg 49%
    05:00 +18°C° 0 mm 2 mps 758 mmHg 50%
    06:00 +19°C° 0 mm 1 mps 759 mmHg 52%
    07:00 +19°C° 0 mm 2 mps 759 mmHg 49%
    08:00 +20°C° 0 mm 2 mps 760 mmHg 45%
    09:00 +21°C° 0 mm 2 mps 761 mmHg 41%
    10:00 +24°C° 0 mm 2 mps 760 mmHg 38%
    11:00 +26°C° 0 mm 2 mps 760 mmHg 34%
    12:00 +27°C° 0 mm 1 mps 760 mmHg 30%
    13:00 +28°C° 0 mm 1 mps 759 mmHg 28%
    14:00 +29°C° 0 mm 1 mps 758 mmHg 26%
    15:00 +29°C° 0 mm 1 mps 757 mmHg 24%
    16:00 +28°C° 0 mm 1 mps 757 mmHg 26%
    17:00 +25°C° 0 mm 0 mps 757 mmHg 28%
    18:00 +24°C° 0 mm 0 mps 757 mmHg 31%
    19:00 +25°C° 0 mm 1 mps 758 mmHg 32%
    20:00 +25°C° 0 mm 1 mps 758 mmHg 33%
    21:00 +24°C° 0 mm 1 mps 759 mmHg 34%
    22:00 +24°C° 0 mm 1 mps 759 mmHg 35%
    23:00 +23°C° 0 mm 2 mps 759 mmHg 36%

    24 January, Thursday

    Time Temperature Precipitation Wind Pressure Humidity
    00:00 +23°C° 0 mm 2 mps 759 mmHg 38%
    01:00 +21°C° 0 mm 2 mps 758 mmHg 40%
    02:00 +20°C° 0 mm 2 mps 758 mmHg 43%
    03:00 +19°C° 0 mm 2 mps 758 mmHg 45%
    04:00 +19°C° 0 mm 2 mps 758 mmHg 47%
    05:00 +19°C° 0 mm 2 mps 758 mmHg 48%
    06:00 +18°C° 0 mm 2 mps 759 mmHg 49%
    07:00 +19°C° 0 mm 2 mps 759 mmHg 47%
    08:00 +20°C° 0 mm 2 mps 760 mmHg 44%
    09:00 +21°C° 0 mm 2 mps 761 mmHg 41%
    10:00 +24°C° 0 mm 2 mps 761 mmHg 38%
    11:00 +26°C° 0 mm 2 mps 761 mmHg 34%
    12:00 +27°C° 0 mm 2 mps 761 mmHg 30%
    13:00 +28°C° 0 mm 1 mps 760 mmHg 29%
    14:00 +29°C° 0 mm 1 mps 759 mmHg 28%
    15:00 +30°C° 0 mm 1 mps 758 mmHg 27%
    16:00 +29°C° 0 mm 1 mps 758 mmHg 29%
    17:00 +27°C° 0 mm 1 mps 758 mmHg 32%
    18:00 +26°C° 0 mm 1 mps 758 mmHg 34%
    19:00 +26°C° 0 mm 1 mps 759 mmHg 35%
    20:00 +25°C° 0 mm 2 mps 759 mmHg 37%
    21:00 +24°C° 0 mm 2 mps 759 mmHg 38%
    22:00 +24°C° 0 mm 2 mps 759 mmHg 39%
    23:00 +23°C° 0 mm 2 mps 759 mmHg 40%
    Show more